Tracking 22780 objects as of 11-Apr-2021
HD Live streaming from Space Station
objects crossing your sky now

FORMOSAT 3E

Track FORMOSAT 3E now!
10-day predictions
FORMOSAT 3E is classified as:


NORAD ID: 29051
Int'l Code: 2006-011E
Perigee: 754.6 km
Apogee: 850.7 km
Inclination: 72.0 °
Period: 100.8 minutes
Semi major axis: 7173 km
RCS: 0.58 m2 (medium)
Launch date: April 15, 2006
Source: Taiwan (Republic of China) (ROC)
Launch site: AIR FORCE WESTERN TEST RANGE (AFWTR)
aabbcc
Your satellite tracking list
Your tracking list is empty




NASA's NSSDC Master Catalog

Two Line Element Set (TLE):
1 29051U 06011E   21101.52952981  .00000047  00000-0  34166-4 0  9996
2 29051  72.0057 206.9539 0067006 130.4356 230.2652 14.28879330784762
Source of the keplerian elements: AFSPC